Florence, SC

1:45 PM EST on December 08, 2019 (GMT -0500)
Florence Regional

Weather History for KFLO - November, 2019

Change the Weather History Date:

Wednesday, November 13, 2019

  Actual Average Record
Temperature  
Mean Temperature 36 °F 56 °F  
Max Temperature 44 °F 68 °F 84 °F (1955)
Min Temperature 27 °F 44 °F 25 °F (2013)
Degree Days  
Heating Degree Days 30 9  
Month to date heating degree days 167 103  
Since 1 July heating degree days 195 220  
Cooling Degree Days 0 1  
Month to date cooling degree days 0 13  
Year to date cooling degree days 2660 2055  
Moisture  
Dew Point 18 °F    
Average Humidity 53    
Maximum Humidity 72    
Minimum Humidity 31    
Precipitation  
Precipitation 0.00 in 0.09 in 0.91 in (1997)
Month to date precipitation 1.10 1.13  
Year to date precipitation 36.73 38.36  
Sea Level Pressure  
Sea Level Pressure 30.37 in    
Wind  
Wind Speed 9 mph ()    
Max Wind Speed 22 mph    
Max Gust Speed 27 mph    
Visibility 10.0 miles    
Events      
T = Trace of Precipitation, MM = Missing Value Source: Averaged Metar Reports

Daily Weather History Graph

Daily Weather History Graph

Search for Another Location

Airport or City:

Astronomy

Nov. 13, 2019 Rise Set
Actual Time 6:49 AM EST 5:16 PM EST
Civil Twilight 6:23 AM EST 5:42 PM EST
Nautical Twilight 5:52 AM EST 6:12 PM EST
Astronomical Twilight 5:23 AM EST 6:42 PM EST
Moon 6:19 PM EST (11/13) 7:40 AM EST (11/13)
Length of Visible Light 11h 19m
Length of Day
10h 26m
Full, 99% of the Moon is Illuminated
Nov 13
Full
Nov 19
Last Quarter
Nov 26
New
Dec 4
First Quarter
Dec 12
Full

Hourly Weather History & Observations

Time (EST) Temp. Windchill Dew Point Humidity Pressure Visibility Wind Dir Wind Speed Gust Speed Precip Events Conditions
12:53 AM 30.9 °F 21.7 °F 19.0 °F 61% 30.26 in 10.0 mi North 11.5 mph - N/A   Clear
2:53 AM 28.9 °F 18.6 °F 17.1 °F 61% 30.28 in 10.0 mi North 12.7 mph - N/A   Clear
3:53 AM 28.9 °F 18.6 °F 16.0 °F 58% 30.30 in 10.0 mi North 12.7 mph - N/A   Clear
4:53 AM 28.0 °F 18.1 °F 16.0 °F 61% 30.33 in 10.0 mi North 11.5 mph - N/A   Clear
5:53 AM 28.0 °F 18.6 °F 16.0 °F 61% 30.35 in 10.0 mi North 10.4 mph - N/A   Clear
6:53 AM 27.0 °F 17.3 °F 16.0 °F 63% 30.37 in 10.0 mi NNE 10.4 mph - N/A   Clear
7:53 AM 30.0 °F 20.5 °F 16.0 °F 56% 30.39 in 10.0 mi NNE 11.5 mph - N/A   Clear
8:53 AM 33.1 °F 22.6 °F 15.1 °F 48% 30.40 in 10.0 mi NE 16.1 mph - N/A   Clear
9:53 AM 35.1 °F 25.5 °F 16.0 °F 46% 30.43 in 10.0 mi NE 15.0 mph - N/A   Clear
10:53 AM 37.9 °F 30.9 °F 16.0 °F 41% 30.43 in 10.0 mi ENE 10.4 mph - N/A   Clear
12:53 PM 42.1 °F 34.9 °F 16.0 °F 35% 30.39 in 10.0 mi NNE 13.8 mph 17.3 mph N/A   Clear
1:53 PM 43.0 °F 38.2 °F 17.1 °F 35% 30.37 in 10.0 mi NNE 8.1 mph 18.4 mph N/A   Clear
2:53 PM 44.1 °F 38.1 °F 16.0 °F 32% 30.36 in 10.0 mi ENE 11.5 mph - N/A   Clear
3:53 PM 43.0 °F 36.8 °F 16.0 °F 34% 30.36 in 10.0 mi ENE 11.5 mph 17.3 mph N/A   Clear
4:53 PM 39.9 °F 35.1 °F 19.0 °F 43% 30.34 in 10.0 mi East 6.9 mph - N/A   Clear
5:53 PM 37.0 °F 33.3 °F 21.0 °F 52% 30.37 in 10.0 mi NNE 4.6 mph - N/A   Clear
6:53 PM 33.1 °F - 23.0 °F 66% 30.40 in 10.0 mi Calm Calm - N/A   Clear
7:53 PM 35.1 °F 28.6 °F 19.9 °F 54% 30.42 in 10.0 mi NNE 8.1 mph - N/A   Clear
8:53 PM 33.1 °F 26.1 °F 19.9 °F 59% 30.42 in 10.0 mi NE 8.1 mph - N/A   Clear
9:53 PM 30.0 °F 23.2 °F 21.0 °F 69% 30.42 in 10.0 mi ENE 6.9 mph - N/A   Clear
10:53 PM 30.0 °F 23.2 °F 21.0 °F 69% 30.43 in 10.0 mi NNE 6.9 mph - N/A   Clear
11:53 PM 28.9 °F 21.9 °F 21.0 °F 72% 30.41 in 10.0 mi NE 6.9 mph - N/A   Clear